{"data":{"norad_id":48473,"intl_designator":"2021-040AX","name":"STARLINK-2658","alt_names":[],"object_type":"PAYLOAD","status":"ACTIVE","operator":null,"country":"US","launch_date":"2021-05-09","launch_site_code":"AFETR","launch_vehicle":null,"mission":null,"orbit_class":"UNKNOWN","rcs_meters":null,"size_class":null,"mass_kg":null,"dimensions":null,"purposes":["comms"],"wikipedia_slug":null,"has_3d_model":false,"image_url":null,"decayed_at":null,"tle_current":{"epoch":"2026-09-20T00:20:28.722048Z","epoch_age_seconds":79303,"freshness":"FRESH","line1":"1 48473U 21040AX  26263.01422132 -.00002572  00000+0 -71200-4 0  9998","line2":"2 48473  53.1622   6.6541 0001155  90.1754 269.9380 15.31677350296278","mean_motion":15.3167735,"eccentricity":0.0001155,"inclination_deg":53.1622,"raan_deg":6.6541,"arg_perigee_deg":90.1754,"mean_anomaly_deg":269.938,"bstar":-7.12e-5,"rev_number":29627,"period_min":94.01457820082,"perigee_km":470.01646143764,"apogee_km":471.5985676205,"semimajor_km":6848.9445145291,"source":"CELESTRAK","updated_at":"2026-09-20T09:00:39.130001Z"}}}